| time (UTC) | temp C | wind direction | speed KPH | gust KPH | rain 1hr cm | rain 24hr cm | rain mn cm | humidity % | barometer mb |
| 20260505223518 | 12 | 197 | 6.4 | 14.5 | 0.05 | 0.76 | 0.00 | 90 | 1009.1 |
| 20260505222516 | 12 | 200 | 9.7 | 17.7 | 0.13 | 0.76 | 0.00 | 90 | 1009.3 |
| 20260505221517 | 12 | 203 | 11.3 | 25.7 | 0.15 | 0.76 | 0.00 | 90 | 1009.5 |
| 20260505220516 | 12 | 197 | 9.7 | 16.1 | 0.18 | 0.76 | 0.00 | 90 | 1009.5 |
| 20260505215515 | 12 | 210 | 11.3 | 20.9 | 0.30 | 0.76 | 0.76 | 89 | 1009.5 |
| 20260505214516 | 12 | 219 | 12.9 | 20.9 | 0.38 | 0.76 | 0.76 | 89 | 1009.6 |
| 20260505213515 | 12 | 210 | 11.3 | 22.5 | 0.33 | 0.71 | 0.71 | 89 | 1009.6 |
| 20260505212517 | 12 | 214 | 9.7 | 19.3 | 0.25 | 0.64 | 0.64 | 88 | 1009.6 |
| 20260505211516 | 12 | 229 | 6.4 | 16.1 | 0.23 | 0.61 | 0.61 | 88 | 1009.3 |
| 20260505210517 | 12 | 242 | 9.7 | 17.7 | 0.20 | 0.58 | 0.58 | 87 | 1009.2 |
| 20260505205516 | 12 | 230 | 11.3 | 24.1 | 0.08 | 0.46 | 0.46 | 85 | 1009.2 |
| 20260505204515 | 13 | 229 | 12.9 | 22.5 | 0.00 | 0.38 | 0.38 | 84 | 1009.0 |
| 20260505203516 | 13 | 233 | 8.0 | 17.7 | 0.00 | 0.38 | 0.38 | 84 | 1008.9 |
| 20260505202516 | 13 | 224 | 8.0 | 20.9 | 0.00 | 0.38 | 0.38 | 84 | 1008.8 |
| 20260505201516 | 13 | 232 | 8.0 | 17.7 | 0.00 | 0.38 | 0.38 | 85 | 1008.6 |
| 20260505200516 | 13 | 245 | 6.4 | 20.9 | 0.00 | 0.38 | 0.38 | 87 | 1008.2 |
| 20260505195517 | 13 | 223 | 1.6 | 4.8 | 0.00 | 0.38 | 0.38 | 86 | 1007.8 |
| 20260505194517 | 13 | 209 | 1.6 | 4.8 | 0.00 | 0.38 | 0.38 | 85 | 1007.6 |
| 20260505193535 | 13 | 209 | 1.6 | 3.2 | 0.00 | 0.38 | 0.38 | 84 | 1007.4 |
| 20260505192516 | 13 | 210 | 1.6 | 4.8 | 0.00 | 0.38 | 0.38 | 83 | 1007.3 |
| 20260505191516 | 13 | 229 | 1.6 | 3.2 | 0.00 | 0.38 | 0.38 | 82 | 1007.1 |
| 20260505190517 | 14 | 229 | 0.0 | 3.2 | 0.00 | 0.38 | 0.38 | 81 | 1007.0 |
| 20260505185536 | 14 | 256 | 3.2 | 4.8 | 0.00 | 0.38 | 0.38 | 80 | 1007.1 |
| 20260505184559 | 14 | 267 | 4.8 | 11.3 | 0.00 | 0.38 | 0.38 | 78 | 1007.0 |
| 20260505183515 | 14 | 274 | 8.0 | 16.1 | 0.00 | 0.38 | 0.38 | 78 | 1006.8 |
| 20260505182515 | 14 | 279 | 6.4 | 12.9 | 0.00 | 0.38 | 0.38 | 80 | 1006.6 |
| 20260505181520 | 15 | 272 | 8.0 | 16.1 | 0.00 | 0.38 | 0.38 | 81 | 1006.7 |
| 20260505180516 | 15 | 283 | 6.4 | 11.3 | 0.00 | 0.38 | 0.38 | 81 | 1006.4 |
| 20260505175517 | 15 | 285 | 4.8 | 9.7 | 0.00 | 0.38 | 0.38 | 79 | 1006.3 |
| 20260505174538 | 16 | 299 | 4.8 | 12.9 | 0.00 | 0.38 | 0.38 | 77 | 1006.2 |
| 20260505173603 | 16 | 285 | 6.4 | 12.9 | 0.00 | 0.38 | 0.38 | 77 | 1006.1 |
| 20260505172515 | 16 | 291 | 4.8 | 14.5 | 0.00 | 0.38 | 0.38 | 76 | 1006.1 |
| 20260505171517 | 16 | 296 | 3.2 | 11.3 | 0.00 | 0.38 | 0.38 | 77 | 1006.1 |
| 20260505170516 | 16 | 284 | 4.8 | 11.3 | 0.00 | 0.38 | 0.38 | 78 | 1006.0 |
| 20260505165515 | 16 | 338 | 6.4 | 11.3 | 0.00 | 0.38 | 0.38 | 78 | 1006.0 |
| 20260505164540 | 16 | 333 | 4.8 | 11.3 | 0.00 | 0.38 | 0.38 | 78 | 1006.0 |
| 20260505163516 | 15 | 327 | 6.4 | 12.9 | 0.00 | 0.38 | 0.38 | 79 | 1006.1 |
| 20260505162517 | 15 | 344 | 4.8 | 8.0 | 0.00 | 0.38 | 0.38 | 81 | 1006.0 |
| 20260505161515 | 15 | 25 | 3.2 | 6.4 | 0.03 | 0.38 | 0.38 | 82 | 1006.0 |
| 20260505160538 | 15 | 7 | 3.2 | 8.0 | 0.05 | 0.38 | 0.38 | 83 | 1006.1 |
| 20260505152536 | 14 | 205 | 3.2 | 8.0 | 0.28 | 0.38 | 0.38 | 84 | 1006.7 |
| 20260505151517 | 14 | 268 | 3.2 | 6.4 | 0.36 | 0.36 | 0.36 | 85 | 1006.8 |
| 20260505150516 | 14 | 230 | 4.8 | 11.3 | 0.33 | 0.33 | 0.33 | 84 | 1006.9 |
| 20260505140517 | 22 | 267 | 4.8 | 12.9 | 0.00 | 0.00 | 0.00 | 48 | 1005.6 |
| 20260505124519 | 22 | 304 | 8.0 | 14.5 | 0.00 | 0.00 | 0.00 | 42 | 1005.7 |
| 20260505123517 | 22 | 258 | 6.4 | 14.5 | 0.00 | 0.00 | 0.00 | 41 | 1005.7 |
| 20260505122537 | 23 | 342 | 4.8 | 8.0 | 0.00 | 0.00 | 0.00 | 42 | 1005.8 |
| 20260505121515 | 23 | 352 | 4.8 | 9.7 | 0.00 | 0.00 | 0.00 | 41 | 1005.9 |
| 20260505120517 | 23 | 85 | 6.4 | 14.5 | 0.00 | 0.00 | 0.00 | 40 | 1005.9 |
| 20260505115515 | 23 | 31 | 4.8 | 16.1 | 0.00 | 0.00 | 0.00 | 40 | 1005.9 |
| 20260505114519 | 23 | 314 | 4.8 | 9.7 | 0.00 | 0.00 | 0.00 | 41 | 1005.9 |
| 20260505113515 | 23 | 239 | 4.8 | 11.3 | 0.00 | 0.00 | 0.00 | 41 | 1006.0 |
| 20260505112518 | 23 | 79 | 3.2 | 6.4 | 0.00 | 0.00 | 0.00 | 41 | 1006.1 |
| 20260505111516 | 23 | 69 | 4.8 | 14.5 | 0.00 | 0.00 | 0.00 | 41 | 1006.3 |
| 20260505110515 | 22 | 47 | 3.2 | 6.4 | 0.00 | 0.00 | 0.00 | 43 | 1006.4 |
| 20260505101515 | 22 | 42 | 6.4 | 12.9 | 0.00 | 0.00 | 0.00 | 43 | 1007.0 |
| 20260505100516 | 22 | 123 | 3.2 | 9.7 | 0.00 | 0.00 | 0.00 | 43 | 1007.3 |
| 20260505095515 | 22 | 97 | 4.8 | 12.9 | 0.00 | 0.00 | 0.00 | 44 | 1007.4 |
| 20260505094516 | 21 | 73 | 4.8 | 9.7 | 0.00 | 0.00 | 0.00 | 45 | 1007.5 |
| 20260505093517 | 22 | 142 | 3.2 | 8.0 | 0.00 | 0.00 | 0.00 | 45 | 1007.6 |
| 20260505092515 | 21 | 208 | 6.4 | 14.5 | 0.00 | 0.00 | 0.00 | 48 | 1007.7 |
| 20260505091516 | 21 | 329 | 3.2 | 8.0 | 0.00 | 0.00 | 0.00 | 49 | 1007.8 |
| 20260505090516 | 20 | 340 | 1.6 | 6.4 | 0.00 | 0.00 | 0.00 | 51 | 1008.0 |
| 20260505085517 | 21 | 186 | 1.6 | 6.4 | 0.00 | 0.00 | 0.00 | 54 | 1008.1 |
| 20260505084536 | 20 | 218 | 3.2 | 6.4 | 0.00 | 0.00 | 0.00 | 55 | 1008.1 |
| 20260505083516 | 19 | 205 | 1.6 | 8.0 | 0.00 | 0.00 | 0.00 | 60 | 1008.2 |
| 20260505082515 | 18 | 204 | 3.2 | 8.0 | 0.00 | 0.00 | 0.00 | 60 | 1008.3 |
| 20260505081517 | 18 | 194 | 0.0 | 3.2 | 0.00 | 0.00 | 0.00 | 64 | 1008.5 |
| 20260505080517 | 18 | 190 | 3.2 | 9.7 | 0.00 | 0.00 | 0.00 | 64 | 1008.6 |
| 20260505075537 | 17 | 209 | 1.6 | 6.4 | 0.00 | 0.00 | 0.00 | 66 | 1008.6 |
| 20260505074517 | 17 | 185 | 1.6 | 4.8 | 0.00 | 0.00 | 0.00 | 67 | 1008.7 |
| 20260505073535 | 16 | 181 | 1.6 | 4.8 | 0.00 | 0.00 | 0.00 | 69 | 1008.8 |
| 20260505072517 | 16 | 175 | 4.8 | 9.7 | 0.00 | 0.00 | 0.00 | 71 | 1008.9 |
| 20260505071516 | 16 | 177 | 1.6 | 4.8 | 0.00 | 0.00 | 0.00 | 73 | 1008.9 |
| 20260505070517 | 15 | 182 | 3.2 | 6.4 | 0.00 | 0.00 | 0.00 | 74 | 1008.9 |
| 20260505065515 | 15 | 215 | 1.6 | 4.8 | 0.00 | 0.00 | 0.00 | 75 | 1008.9 |
| 20260505064516 | 14 | 213 | 1.6 | 4.8 | 0.00 | 0.00 | 0.00 | 75 | 1008.9 |
| 20260505063521 | 14 | 219 | 3.2 | 6.4 | 0.00 | 0.00 | 0.00 | 76 | 1009.0 |
| 20260505062515 | 13 | 207 | 1.6 | 4.8 | 0.00 | 0.00 | 0.00 | 77 | 1009.1 |
| 20260505061516 | 13 | 214 | 1.6 | 3.2 | 0.00 | 0.00 | 0.00 | 78 | 1009.1 |
| 20260505060515 | 13 | 219 | 1.6 | 4.8 | 0.00 | 0.00 | 0.00 | 78 | 1009.1 |
| 20260505055515 | 12 | 219 | 3.2 | 6.4 | 0.00 | 0.00 | 0.00 | 80 | 1009.2 |
| 20260505054516 | 12 | 208 | 3.2 | 9.7 | 0.00 | 0.00 | 0.00 | 81 | 1009.2 |
| 20260505053518 | 11 | 195 | 3.2 | 9.7 | 0.00 | 0.00 | 0.00 | 82 | 1009.2 |
| 20260505052516 | 11 | 189 | 3.2 | 6.4 | 0.00 | 0.00 | 0.00 | 83 | 1009.3 |
| 20260505051516 | 10 | 179 | 3.2 | 6.4 | 0.00 | 0.00 | 0.00 | 83 | 1009.2 |
| 20260505050516 | 10 | 183 | 3.2 | 6.4 | 0.00 | 0.00 | 0.00 | 84 | 1009.2 |
| 20260505041517 | 8 | 160 | 1.6 | 3.2 | 0.00 | 0.00 | 0.00 | 85 | 1009.3 |
| 20260505040515 | 9 | 160 | 1.6 | 3.2 | 0.00 | 0.00 | 0.00 | 85 | 1009.2 |
| 20260505035516 | 9 | 159 | 0.0 | 1.6 | 0.00 | 0.00 | 0.00 | 85 | 1009.3 |
| 20260505034515 | 9 | 159 | 1.6 | 3.2 | 0.00 | 0.00 | 0.00 | 85 | 1009.3 |
| 20260505033517 | 9 | 159 | 1.6 | 3.2 | 0.00 | 0.00 | 0.00 | 85 | 1009.3 |
| 20260505032516 | 9 | 159 | 0.0 | 1.6 | 0.00 | 0.00 | 0.00 | 85 | 1009.4 |
| 20260505031517 | 9 | 159 | 0.0 | 3.2 | 0.00 | 0.00 | 0.00 | 84 | 1009.5 |
| 20260505030516 | 9 | 169 | 1.6 | 3.2 | 0.00 | 0.00 | 0.00 | 83 | 1009.6 |
| 20260505025515 | 10 | 0.0 | 0.0 | 0.00 | 0.00 | 0.00 | 84 | 1009.7 | |
| 20260505024516 | 10 | 169 | 1.6 | 3.2 | 0.00 | 0.00 | 0.00 | 84 | 1009.7 |
| 20260505023515 | 10 | 169 | 1.6 | 3.2 | 0.00 | 0.00 | 0.00 | 84 | 1009.9 |
| 20260505022517 | 10 | 171 | 0.0 | 3.2 | 0.00 | 0.00 | 0.00 | 83 | 1010.0 |
| 20260505021516 | 10 | 0.0 | 0.0 | 0.00 | 0.00 | 0.00 | 83 | 1010.0 | |
| 20260505020536 | 10 | 0.0 | 0.0 | 0.00 | 0.00 | 0.00 | 83 | 1010.1 | |
| 20260505015516 | 10 | 0.0 | 0.0 | 0.00 | 0.00 | 0.00 | 82 | 1010.2 | |
| 20260505014515 | 10 | 0.0 | 0.0 | 0.00 | 0.00 | 0.00 | 82 | 1010.2 | |
| 20260505013517 | 11 | 0.0 | 0.0 | 0.00 | 0.00 | 0.00 | 82 | 1010.2 | |
| 20260505012516 | 11 | 0.0 | 0.0 | 0.00 | 0.00 | 0.00 | 81 | 1010.2 | |
| 20260505011515 | 11 | 0.0 | 0.0 | 0.00 | 0.00 | 0.00 | 80 | 1010.3 | |
| 20260505010516 | 11 | 170 | 1.6 | 3.2 | 0.00 | 0.00 | 0.00 | 80 | 1010.4 |
| 20260505005516 | 12 | 169 | 0.0 | 1.6 | 0.00 | 0.00 | 0.00 | 79 | 1010.4 |
| 20260505004517 | 12 | 0.0 | 0.0 | 0.00 | 0.00 | 0.00 | 78 | 1010.3 | |
| 20260505003516 | 12 | 169 | 1.6 | 3.2 | 0.00 | 0.00 | 0.00 | 77 | 1010.5 |
| 20260505002536 | 12 | 180 | 1.6 | 4.8 | 0.00 | 0.00 | 0.00 | 77 | 1010.5 |
| 20260505001516 | 13 | 184 | 4.8 | 8.0 | 0.00 | 0.00 | 0.00 | 77 | 1010.5 |
| 20260505000516 | 13 | 168 | 1.6 | 6.4 | 0.00 | 0.00 | 0.00 | 77 | 1010.7 |
| 20260504235515 | 13 | 184 | 3.2 | 9.7 | 0.00 | 0.00 | 0.00 | 77 | 1010.7 |
| 20260504234516 | 13 | 181 | 1.6 | 4.8 | 0.00 | 0.00 | 0.00 | 76 | 1010.8 |
| 20260504233517 | 13 | 181 | 1.6 | 4.8 | 0.00 | 0.00 | 0.00 | 76 | 1010.8 |
| 20260504232516 | 13 | 180 | 1.6 | 4.8 | 0.00 | 0.00 | 0.00 | 76 | 1010.9 |
| 20260504231517 | 13 | 197 | 1.6 | 6.4 | 0.00 | 0.00 | 0.00 | 75 | 1011.1 |
| 20260504230515 | 14 | 197 | 1.6 | 3.2 | 0.00 | 0.00 | 0.00 | 75 | 1011.2 |
| 20260504225517 | 14 | 215 | 1.6 | 6.4 | 0.00 | 0.00 | 0.00 | 75 | 1011.2 |
| 20260504224516 | 14 | 232 | 1.6 | 4.8 | 0.00 | 0.00 | 0.00 | 74 | 1011.2 |